Regional Weather Roundup
Issued by NWS Wakefield, VA

Home | Current Version | Previous Version | Graphics & Text | Print | Product List | Glossary On
Versions: 1 2 3 4 5 6 7 8 9 10 11 12 13 14 15 16 17 18 19 20 21 22 23 24 25 26 27
000
ASUS41 KAKQ 221715
RWRAKQ

REGIONAL WEATHER ROUNDUP
NATIONAL WEATHER SERVICE WAKEFIELD VA
100 PM EDT WED MAR 22 2017

Note: "fair" indicates few or no clouds below 12,000 feet with no
significant weather and/or obstructions to visibility. * = Denotes
station may not report precipitation (e.g., rain,snow,etc.),
thunder or fog.

VAZ042-051-052>054-056-221800-
NORTHERN VIRGINIA

CITY           SKY/WX    TMP DP  RH WIND       PRES   REMARKS
WASH NATIONAL  MOSUNNY   46  16  30 NW24G32   30.27R
DULLES         MOSUNNY   44  15  31 NW18G28   30.28R
FORT BELVOIR   SUNNY     45  10  24 NW20G29   30.27R
QUANTICO       MOSUNNY   47  16  29 NW22G30   30.29R
FREDERICKSBRG* SUNNY     45  19  35 N13G20    30.28R
STAFFORD*      SUNNY     44  17  33 NW15G26   30.32R
WARRENTON      SUNNY     47  10  23 NW15G23   30.28S
CULPEPER*      SUNNY     46  15  29 NW12G23   30.30S
MANASSAS*      SUNNY     45  15  30 N20G32    30.29R
LEESBURG*      SUNNY     43  21  42 NW16G29   30.29S
WINCHESTER     SUNNY     41  16  36 W20G30    30.28S
FRONT ROYAL*   SUNNY     41  12  30 NW17G30   30.28R
LURAY*         SUNNY     43  18  36 N15G23    30.28R
$$

VAZ048-049-060>072-079>083-221800-
CENTRAL AND SOUTH CENTRAL VIRGINIA

CITY           SKY/WX    TMP DP  RH WIND       PRES   REMARKS
RICHMOND       MOSUNNY   50  15  24 N28G33    30.24R
CHESTERFIELD*  FAIR      52  10  19 N15G21    30.25R
PETERSBURG*    SUNNY     50   9  19 N17G25    30.24R
HANOVER        SUNNY     48  15  26 NW14G25   30.26R
TAPPAHANNOCK*  SUNNY     47  -4  12 N20G26    30.25R
QUINTON*       FAIR      48  14  25 NW18G26   30.23R
CHARLOTTSVILLE SUNNY     48  11  22 W12G21    30.27R
GORDONSVILLE*  SUNNY     46  13  26 NE10G17   30.27R
ORANGE*        SUNNY     43  12  28 N10G17    30.29S
LOUISA*        SUNNY     50  18  27 N10G20    30.26R
BUMPASS*       FAIR      45  11  25 N10G20    30.27S
FARMVILLE*     SUNNY     52  13  21 N10G24    30.22R
CREWE*         FAIR      51  19  28 N13G22    30.22R
FORT PICKETT*  FAIR      53   7  15 N10G23    30.21R
CHASE CITY*    FAIR      55  15  20 N15G23    30.20R
CLARKSVILLE*   FAIR      57  27  30 N12G17    30.19R
SOUTH HILL*    SUNNY     53  19  25 N20G28    30.25R
LAWRENCEVILLE* FAIR      55  20  26 NW12G22   30.19S
EMPORIA*       SUNNY     54  16  22 NW16G35   30.22R
$$

VAZ088>098-221800-
SOUTHEAST VIRGINIA

CITY           SKY/WX    TMP DP  RH WIND       PRES   REMARKS
NORFOLK        SUNNY     50  32  50 N23G32    30.18R
VIRGINIA BEACH MOSUNNY   49  30  48 N24G30    30.17R
NORFOLK NAVAL  NOT AVBL
WEST POINT*    SUNNY     49  15  25 NW14G20   30.24R
SALUDA*        FAIR      46  20  35 N16G24    30.21R
NEWPORT NEWS   SUNNY     50  12  21 N22G30    30.20R
LANGLEY AFB    MOSUNNY   51  16  25 N20G26    30.18R
FORT EUSTIS    SUNNY     52  16  24 N16G25    30.18R
WILLIAMSBURG*  SUNNY     57  27  30 N6G17     30.21R
HR EXEC AP*    FAIR      52  19  28 N10G24    30.17R
FRANKLIN*      SUNNY     53  11  19 N18G28    30.20R
US460-WAKEFLD  SUNNY     50  13  22 N13G26    30.21R
$$

VAZ020-022-025-037-045-221800-
WEST CENTRAL AND SOUTHWEST VIRGINIA

CITY           SKY/WX    TMP DP  RH WIND       PRES   REMARKS
STAUNTON*      SUNNY     44  12  27 NE12G21   30.28R
WAYNESBORO*    SUNNY     43  14  31 N12G20    30.25R
HOT SPRINGS VA SUNNY     36  -2  20 NW15G23   30.18R
LYNCHBURG      SUNNY     51  14  22 N12G23    30.24R
DANVILLE       SUNNY     59  23  25 N15       30.19R
SOUTH BOSTON*  FAIR      60  12  15 NE12G22   30.20R
MARTINSVILLE   SUNNY     55  12  18 N14G22    30.24R
ROANOKE        MOSUNNY   53  16  23 NW9G23    30.25R
BLACKSBURG     SUNNY     46  17  31 N12G22    30.25S
DUBLIN*        SUNNY     45  18  34 NW15      30.25S
MARION*        SUNNY     47  12  24 W15       30.24R
HILLSVILLE*    SUNNY     45  15  30 N17G26    30.19R
RICHLANDS*     FAIR      42  18  37 CALM      30.25R
WISE*          SUNNY     43  21  42 NW14G20   30.28S
ABINGDON*      SUNNY     48  19  31 NW8       30.25S
$$

MDZ021>025-VAZ099-100-221800-
SOUTHERN MARYLAND AND THE DELMARVA PENINSULA

CITY           SKY/WX    TMP DP  RH WIND       PRES   REMARKS
PATUXENT RIVER MOSUNNY   48  24  39 NW22G29   30.22R
BAY BRIDGE APT SUNNY     45  18  33 N17G29    30.25R
LEONARDTOWN    SUNNY     45  14  29 NW7G23    30.24S
DOVER          SUNNY     44  15  31 NW25G39   30.19R
GEORGETOWN     SUNNY     46  10  23 N14G30    30.19R
EASTON         SUNNY     46  14  27 N16G25    30.26R
CAMBRIDGE      SUNNY     45  14  29 NW21G29   30.23R
SALISBURY      SUNNY     49  19  30 N20G31    30.18R
OCEAN CITY     SUNNY     48  19  31 NW25G39   30.16R
WALLOPS ISLAND SUNNY     48  18  30 N16G30    30.17R
ACCOMACK*      SUNNY     47  23  39 N24G36    30.19R
$$

NCZ012>017-030>032-221800-
NORTH CENTRAL AND EASTERN NORTH CAROLINA

CITY           SKY/WX    TMP DP  RH WIND       PRES   REMARKS
ROANOKE RAPIDS FAIR      55  28  35 NE14G26   30.17R
RALEIGH        CLOUDY    60  26  27 N9G21     30.16R
ELIZABETH CITY CLOUDY    53  34  48 N23G30    30.14R
AHOSKIE*       NOT AVBL
EDENTON*       CLOUDY    57  34  42 N15G26    30.15R
CURRITUCK*     CLOUDY    52  31  44 N18G29    30.17R
KILL DEVIL HLS NOT AVBL
MANTEO         CLOUDY    50  35  58 NE23G33   30.14R
CAPE HATTERAS  MOSUNNY   56  41  57 NE15G37   30.10R
TARBORO*       NOT AVBL
GOLDSBORO      CLOUDY    61  42  48 N15G21    30.11R
WASHINGTON     CLOUDY    57  44  62 NE9G16    30.12S
GREENVILLE     CLOUDY    59  41  51 NE10G18   30.14S
NEW BERN       CLOUDY    59  47  64 N18G26    30.12R
WILMINGTON     PTSUNNY   65  46  50 N15G24    30.09R
$$

VAZ048-221800-
ELSEWHERE

CITY           SKY/WX    TMP DP  RH WIND       PRES   REMARKS
HARRISBURG PA  SUNNY     40   5  23 N17G29    30.27R
BALTIMORE      MOSUNNY   45   8  22 NW18G32   30.24R
ANNAPOLIS      SUNNY     44  19  36 NW16      30.24R
ANDREWS AFB    SUNNY     44  12  27 N23G36    30.25R
PHILADELPHIA   MOSUNNY   41   7  24 N24G31    30.22R
HENDERSON NC   CLOUDY    56  29  34 N12G23    30.17R
GREENSBORO     PTSUNNY   58  22  24 N9G16     30.17F
ROCKY MOUNT    CLOUDY    59  40  49 N17G23    30.15R
$$

VAZ100-221800-
MARINE

STATION/POSITION TIME  TEMP    WIND        PRES    WAVE   SWELL
                       AIR SEA DIR/SP/G            HT/PER HT/PER
                 (UTC) (F)     (DEG/KT/KT) (MB)    (FT/S) (FT/S)
CAPE MAY NJ      1648   41 43  320/ 25/ 33 1021.5R
LEWES DE         1648   40 45  350/ 28/ 33 1022.3R
OCEAN-CITY-INLET 1648   44 46   10/ 20/ 25 1021.6R
WACHAPREAGUE VA  1648   47 52  310/  8/ 18 1021.7R
THOMAS POINT MD  1700   42 44  350/ 21/ 24   N/A
GOOSES REEF MD   1700   43 44   20/ 16/ 21 1024.3    3/ 3
COVE POINT MD    1648   41      20/ 19/ 27 1024.1R
SOLOMONS ISLAND  1648   44 46  320/ 14/ 22   N/A
BISHOPS HEAD MD  1648   44 48  330/ 23/ 31 1023.7R
PINEY POINT MD   1648          340/ 19/ 22   N/A
POTOMAC MD       1700   44 45  350/ 14/ 21 1022.8    2/ 3
CAMBRIDGE MD     1648   42 44  340/ 20/ 26 1022.7R
LEWISETTA VA     1648   43 48  340/ 20/ 25 1023.5R
RAPPAHANNOCK LGT 1648          350/ 31/ 34 1022.9R
STINGRAY PT      1650   44      10/ 19/ 23 1022.7R
YORK RVR RNG VA  1648   45     350/ 26/ 30 1021.6R
YORKTOWN VA      1648   47 49  330/ 20/ 26 1022.4R
JAMESTOWN VA     1700   47 50  330/ 16/ 25   N/A
DOMINION TERM VA 1648   49     350/ 16/ 23 1022.2R
KIPTOPEKE VA     1648      46   10/ 19/ 26   N/A
CHES BAY BRIDGE  1648   43 47   10/ 29/ 34 1021.7R
CAPE HENRY VA    1648   44     360/ 31/ 38   N/A
WILLOUBY STN VA  1648   47     360/ 21/ 25 1022.9R
S CRANEY ISL VA  1648   48     360/ 20/ 25 1021.5R
CAPE HENRY BUOY  1642      46                N/A     5/ 5   2/12
CAPE CHARLES BUO 1651      46                N/A     5/ 5   2/11
OFFSHORE WE BUOY 1651      46                N/A     6/ 5   2/11
64NM E OF VA BCH 1650   47 48  360/ 25/ 29 1019.4R   7/ 5   3/11
DUCK PIER NC     1648   46 48   10/ 29/ 33 1019.9R
44100 DUCK FRF   1635      47                N/A     6/ 4   2/12
44056 DUCK FRF   1630      47                N/A     5/ 5   2/11
OREGON INLET NC  1642   49 51  350/ 23/ 30 1019.9R
HATTERAS NC      1648   52 55   10/ 30/ 35 1018.6R
DIAMOND SHLS NC  1650   55 74   10/ 31/ 39 1017.4R   9/10
CAPE LOOKOUT NC  1600   57      10/ 19/ 23 1017.6R
$$




USA.gov is the U.S. government's official web portal to all federal, state and local government web resources and services.